User: anonymous
Location: Caltech
(34.1382°N, 118.1253°W)
Time: 12:48:43
(UTC-07:00)
Language:

TMSAT-1 - Orbit

View from above orbital plane
View from above orbital plane
View from above satellite
View from above satellite

Ground track
Ground track

The orbit data is extracted from the following two-line orbital elements,

1 25396U 98043C   14234.83805219  .00000030  00000-0  31264-4 0  9307
2 25396 098.4451 194.0308 0003851 093.5734 326.5885 14.24186965837642
Epoch (UTC): 22 August 2014 20:06:47
Eccentricity: 0.0003851
inclination: 98.4451°
perigee height: 808 km
apogee height: 814 km
right ascension of ascending node: 194.0308°
argument of perigee: 93.5734°
revolutions per day: 14.24186965
mean anomaly at epoch: 326.5885°
orbit number at epoch: 83764

The dashed part of the orbit path shows where the satellite is in the earth's shadow,  

DLR